Find Starlink 30039

NORAD ID: 57468 Int'l Des: 2023-107 Owner: SPXS Country: US Constellation: starlink operational
LEOCIRCULAR

リアルタイム位置

3D地球を読み込み中...

Starlink 30039について

説明を読み込み中...

次回通過

Passes for default location (London). Set your location on the main map for personalized predictions.

高度履歴

Loading altitude history...

軌道要素

1 57468U 23107M 26130.01687646 -.00000948 00000-0 -24933-4 0 9991
2 57468 43.0050 349.9852 0001452 269.5476 90.5210 15.27568059154527
Epoch: May 10, 2026 • Age: 13 hours

現在のステータス

高度 484.2 km
速度 7.63 km/s
衛星直下点 29.17°N, 42.19°W
打ち上げ日 Jul 28, 2023
運用期間 2.7 years
タイプ internet

技術仕様

分類 Payload
質量 730.00 kg
乾燥質量 700.00 kg
総質量 730.00 kg
長さ 0.30 m
直径 4.10 m
スパン 29.00 m
形状 Box + pan
製造者 SPXS
バスタイプ Starlink V2M
フェーズステータス In Orbit
所有者/国 SPXS/US

Most Searched